[[{"header":{"parameterUnit":"m.s-1","parameterCategory":1,"la1":30.2991,"la2":30.254,"lo1":-89.0895,"lo2":-89.0444,"dy":0.0017,"dx":0.0017,"nx":28,"ny":28,"refTime":"2024-08-27T09:00:00:Z","depth":0,"parameterNumber":2,"parameterNumberName":"U-component_of_WINDS"},"data":[0,0,0,0,0,0,0,0,0,0,0,0,0,0,0,0,0,0,0,0,0,0,0,0,0,0,0,0,0,0,0,0,0,0,0,0,0,0,0,0,0,0,0,0,0,0,0,0,0,0,0,0,0,0,0,0,0,0,-3.1065,-3.1065,0,-3.1006,-3.1006,-3.1005,-3.0952,-3.0951,-3.095,-3.095,-3.0888,-3.0887,-3.0886,0,0,0,0,0,0,0,0,0,0,0,0,0,-3.1133,-3.1132,-3.1065,-3.1065,-3.1064,-3.1006,-3.1006,-3.1005,-3.0952,-3.0951,-3.095,-3.095,-3.0888,-3.0887,-3.0886,0,0,0,0,0,0,0,0,0,0,0,0,0,-3.1092,-3.1132,-3.1065,-3.1031,-3.1027,-3.1007,-3.1006,-3.1005,-3.0952,-3.0951,-3.095,-3.0949,-3.0889,-3.0887,-3.0886,-3.0895,0,0,-3.0881,-3.088,0,0,0,0,0,0,0,0,-3.1094,-3.1089,-3.1036,-3.1033,-3.1029,-3.0985,-3.1007,-3.0968,-3.0952,-3.098,-3.095,-3.0949,-3.0921,-3.0917,-3.0908,-3.0892,-3.0889,-3.0881,-3.088,-3.0879,-3.0878,0,0,0,0,0,0,0,-3.1097,-3.1092,-3.1042,-3.1036,-3.1031,-3.1018,-3.1011,-3.0999,-3.0957,-3.0978,-3.0974,-3.0968,-3.0919,-3.0909,-3.0906,-3.0888,-3.0881,-3.0879,-3.0878,-3.0878,-3.088,-3.0881,0,0,0,0,0,0,-3.1105,-3.1094,-3.1044,-3.104,-3.106,-3.1018,-3.101,-3.1,-3.0957,-3.0949,-3.0969,-3.0965,-3.0912,-3.0908,-3.0903,-3.0913,-3.0879,-3.0877,-3.0876,-3.0879,-3.0881,-3.0882,0,0,0,0,0,0,-3.1107,-3.1101,-3.1046,-3.1066,-3.1058,-3.1018,-3.1007,-3.1,-3.099,-3.095,-3.0942,-3.0967,-3.0912,-3.0906,-3.0898,-3.091,-3.0877,-3.0875,-3.0878,-3.088,-3.0881,-3.0931,0,0,0,0,0,0,-3.1109,-3.1102,-3.1105,-3.1067,-3.1057,-3.1041,-3.1008,-3.0999,-3.0988,-3.0983,-3.0946,-3.0939,-3.091,-3.0901,-3.0897,-3.0907,-3.0874,-3.0877,-3.0879,-3.0881,-3.0928,-3.0934,-3.0939,0,0,0,0,0,-3.1112,-3.112,-3.1105,-3.1099,-3.106,-3.1042,-3.1037,-3.1004,-3.0989,-3.0991,-3.0966,-3.094,-3.091,-3.09,-3.0895,-3.0906,-3.0876,-3.0878,-3.0881,-3.0926,-3.0933,-3.0939,0,0,0,0,0,0,-3.1159,-3.1114,-3.1097,-3.1093,-3.1072,-3.1033,-3.1035,-3.1013,-3.0995,-3.0991,-3.0952,-3.0944,-3.0941,-3.0923,-3.0913,-3.0914,-3.089,-3.0891,-3.0926,-3.0932,-3.0938,-3.0942,-3.0873,0,0,0,0,0,-3.1169,-3.1159,-3.112,-3.1121,-3.1111,-3.1076,-3.1067,-3.1044,-3.102,-3.1011,-3.0984,-3.0962,-3.0948,-3.0939,-3.0924,-3.0926,-3.0918,-3.0931,-3.0937,-3.0942,-3.0943,-3.0945,-3.0951,-3.0889,-3.0889,-3.0889,0,0,-3.1189,-3.1164,-3.1159,-3.113,-3.1111,-3.1102,-3.1068,-3.1059,-3.1052,-3.1009,-3.1001,-3.0982,-3.0954,-3.0953,-3.095,-3.0937,-3.0959,-3.0944,-3.0949,-3.0947,-3.0948,-3.0954,-3.0959,-3.0891,-3.0891,-3.089,0,0,-3.1221,-3.1201,-3.12,-3.1183,-3.1155,-3.1132,-3.1132,-3.1098,-3.1083,-3.1075,-3.1044,-3.1035,-3.1011,-3.0994,-3.0982,-3.1013,-3.0989,-3.1009,-3.1038,-3.1041,-3.1045,-3.105,-3.1062,-3.1067,-3.1011,-3.1011,-3.1011,0,-3.125,-3.1234,-3.1202,-3.1196,-3.1185,-3.1148,-3.1148,-3.1132,-3.1101,-3.1094,-3.108,-3.1052,-3.103,-3.1025,-3.1034,-3.1025,-3.1025,-3.1012,-3.1047,-3.1051,-3.1055,-3.1066,-3.1071,-3.1014,-3.1013,-3.1013,-3.1013,0,-3.1272,-3.1262,-3.1265,-3.1238,-3.1227,-3.1223,-3.1192,-3.1185,-3.1165,-3.1144,-3.1137,-3.1111,-3.1091,-3.1089,-3.1068,-3.1082,-3.1075,-3.1055,-3.1029,-3.1064,-3.1074,-3.1078,-3.1018,-3.1017,-3.1016,-3.1015,0,0,-3.1328,-3.1286,-3.1288,-3.1276,-3.1245,-3.1237,-3.1234,-3.1216,-3.1211,-3.1192,-3.1189,-3.1172,-3.1154,-3.1141,-3.1118,-3.1121,-3.115,-3.1101,-3.11,-3.1112,-3.1166,-3.1181,-3.1186,-3.1135,-3.1135,-3.1136,-3.1168,0,-3.1355,-3.1347,-3.132,-3.1319,-3.1311,-3.1279,-3.1276,-3.1257,-3.1239,-3.123,-3.1209,-3.1198,-3.1175,-3.1167,-3.1168,-3.1146,-3.116,-3.1143,-3.1132,-3.1132,-3.1139,-3.1191,-3.1206,-3.1238,-3.1172,-3.1173,-3.1173,0,-3.1384,-3.137,-3.137,-3.1342,-3.1338,-3.1336,-3.1319,-3.131,-3.129,-3.1276,-3.1264,-3.124,-3.1236,-3.1214,-3.1209,-3.1198,-3.1192,-3.1181,-3.1182,-3.1178,-3.1154,-3.119,-3.1247,-3.1252,-3.1179,-3.1178,-3.1178,0,-3.1427,-3.1407,-3.1405,-3.1396,-3.1364,-3.1364,-3.135,-3.1329,-3.1321,-3.1306,-3.1301,-3.1286,-3.1278,-3.1267,-3.1241,-3.1227,-3.124,-3.1214,-3.1229,-3.123,-3.1231,-3.1231,-3.1288,-3.1229,-3.1228,-3.1228,-3.1228,0,-3.146,-3.1461,-3.1424,-3.1422,-3.1424,-3.1394,-3.1396,-3.138,-3.1362,-3.1358,-3.1329,-3.1325,-3.1291,-3.1284,-3.1263,-3.1263,-3.126,-3.1249,-3.1244,-3.1251,-3.1253,-3.1246,-3.1243,-3.123,-3.1229,-3.1229,-3.1229,0,-3.1506,-3.1481,-3.1477,-3.1448,-3.1442,-3.1444,-3.142,-3.1418,-3.1399,-3.1394,-3.1392,-3.1362,-3.1353,-3.1326,-3.131,-3.1296,-3.1303,-3.1292,-3.131,-3.1306,-3.1322,-3.1321,-3.1376,-3.1383,-3.1319,-3.132,-3.132,0,-3.1528,-3.1528,-3.1501,-3.1497,-3.1485,-3.1478,-3.1471,-3.1443,-3.1436,-3.1416,-3.1417,-3.1406,-3.1395,-3.1383,-3.136,-3.1349,-3.1338,-3.1358,-3.1335,-3.1345,-3.1339,-3.1339,-3.134,-3.1362,-3.1363,-3.1364,-3.1365,0,-3.157,-3.1559,-3.1549,-3.1537,-3.153,-3.1518,-3.1505,-3.1503,-3.1472,-3.1467,-3.1458,-3.145,-3.1436,-3.1426,-3.1411,-3.1398,-3.1377,-3.1373,-3.1375,-3.1383,-3.1393,-3.1389,-3.1323,-3.1371,-3.137,-3.137,-3.1369,-3.1369,-3.1604,-3.1605,-3.1587,-3.1578,-3.1566,-3.1556,-3.1554,-3.1536,-3.1529,-3.1515,-3.1499,-3.1493,-3.1476,-3.1455,-3.1444,-3.1439,-3.1427,-3.1431,-3.1432,-3.1433,-3.1438,-3.1395,-3.1436,-3.1436,-3.1436,-3.1436,-3.1436,0,-3.1645,-3.1633,-3.1626,-3.161,-3.1605,-3.1587,-3.1573,-3.1569,-3.1564,-3.155,-3.1542,-3.1534,-3.1525,-3.1504,-3.1493,-3.1494,-3.1484,-3.1492,-3.1492,-3.1489,-3.1448,-3.1447,-3.1501,-3.1501,-3.1501,-3.1501,-3.1501,-3.1501,-3.1666,-3.1666,-3.1654,-3.1649,-3.1636,-3.1631,-3.1625,-3.1616,-3.1605,-3.1597,-3.1591,-3.1577,-3.1561,-3.155,-3.1542,-3.1537,-3.1534,-3.1546,-3.1537,-3.1498,-3.1492,-3.1486,-3.1485,-3.1545,-3.1546,-3.1578,-3.1579,-3.1579]},{"header":{"parameterUnit":"m.s-1","parameterCategory":1,"la1":30.2991,"la2":30.254,"lo1":-89.0895,"lo2":-89.0444,"dy":0.0017,"dx":0.0017,"nx":28,"ny":28,"refTime":"2024-08-27T09:00:00:Z","depth":0,"parameterNumber":3,"parameterNumberName":"V-component_of_WINDS"},"data":[0,0,0,0,0,0,0,0,0,0,0,0,0,0,0,0,0,0,0,0,0,0,0,0,0,0,0,0,0,0,0,0,0,0,0,0,0,0,0,0,0,0,0,0,0,0,0,0,0,0,0,0,0,0,0,0,0,0,1.5232,1.5232,0,1.5288,1.5289,1.5289,1.5338,1.5339,1.5339,1.534,1.5393,1.5394,1.5394,0,0,0,0,0,0,0,0,0,0,0,0,0,1.5161,1.5162,1.5231,1.5232,1.5233,1.5288,1.5289,1.5289,1.5338,1.5339,1.5339,1.534,1.5392,1.5393,1.5394,0,0,0,0,0,0,0,0,0,0,0,0,0,1.5202,1.5162,1.5231,1.5264,1.5267,1.5288,1.5289,1.529,1.5338,1.5339,1.5339,1.534,1.5392,1.5393,1.5395,1.5386,0,0,1.5399,1.5399,0,0,0,0,0,0,0,0,1.5199,1.5204,1.5258,1.5262,1.5266,1.5307,1.5283,1.5322,1.5338,1.5311,1.534,1.5341,1.5363,1.5367,1.5376,1.5389,1.5391,1.5399,1.54,1.54,1.5401,0,0,0,0,0,0,0,1.5196,1.5202,1.5254,1.5259,1.5263,1.5274,1.5281,1.5291,1.5331,1.5313,1.5317,1.5323,1.5365,1.5374,1.5377,1.5392,1.5399,1.54,1.5401,1.5401,1.5399,1.5398,0,0,0,0,0,0,1.5189,1.5199,1.5252,1.5255,1.5234,1.5275,1.5282,1.5293,1.5331,1.5338,1.5322,1.5325,1.5371,1.5375,1.5379,1.537,1.54,1.5401,1.5402,1.54,1.5398,1.5398,0,0,0,0,0,0,1.5187,1.5193,1.525,1.5228,1.5236,1.5275,1.5286,1.5293,1.5302,1.5339,1.5345,1.5324,1.5372,1.5377,1.5384,1.5373,1.5402,1.5403,1.5401,1.5399,1.5398,1.5353,0,0,0,0,0,0,1.5185,1.5193,1.5191,1.5228,1.5237,1.5255,1.5286,1.5294,1.5305,1.5309,1.5342,1.5348,1.5373,1.5382,1.5385,1.5375,1.5404,1.5402,1.54,1.5398,1.5356,1.535,1.5346,0,0,0,0,0,1.5183,1.5175,1.519,1.5197,1.5236,1.5254,1.5259,1.529,1.5304,1.5302,1.5325,1.5347,1.5374,1.5382,1.5386,1.5376,1.5402,1.54,1.5399,1.5358,1.5351,1.5346,0,0,0,0,0,0,1.5134,1.5181,1.5198,1.5203,1.5224,1.5262,1.526,1.5282,1.5298,1.5301,1.5337,1.5344,1.5346,1.5362,1.5371,1.5369,1.5391,1.539,1.5359,1.5353,1.5348,1.5343,1.5405,0,0,0,0,0,1.5124,1.5136,1.5176,1.5176,1.5186,1.5221,1.523,1.5252,1.5275,1.5284,1.5307,1.5327,1.534,1.5348,1.5362,1.5359,1.5365,1.5354,1.5349,1.5345,1.5343,1.5341,1.5336,1.5391,1.5391,1.5391,0,0,1.5103,1.513,1.5135,1.5167,1.5186,1.5196,1.5229,1.5238,1.5245,1.5285,1.5292,1.531,1.5335,1.5336,1.5338,1.535,1.5329,1.5343,1.5339,1.5339,1.5338,1.5333,1.5328,1.539,1.539,1.539,0,0,1.507,1.5093,1.5095,1.5113,1.5142,1.5166,1.5166,1.5201,1.5215,1.5224,1.5253,1.5262,1.5283,1.5299,1.531,1.5283,1.5303,1.5286,1.526,1.5257,1.5253,1.5249,1.5237,1.5233,1.5285,1.5285,1.5284,0,1.5039,1.5057,1.5092,1.51,1.5112,1.515,1.5151,1.5167,1.5199,1.5205,1.5219,1.5246,1.5266,1.5271,1.5264,1.5272,1.5272,1.5282,1.5251,1.5248,1.5245,1.5234,1.5229,1.5282,1.5282,1.5283,1.5283,0,1.5018,1.5029,1.5027,1.5058,1.507,1.5074,1.5108,1.5116,1.5137,1.5158,1.5166,1.5191,1.521,1.5213,1.5233,1.522,1.5226,1.5245,1.5267,1.5236,1.5227,1.5223,1.5279,1.528,1.528,1.5281,0,0,1.4954,1.5004,1.5003,1.5017,1.5052,1.506,1.5066,1.5086,1.5091,1.5111,1.5115,1.5133,1.5151,1.5163,1.5185,1.5183,1.5157,1.5202,1.5203,1.5191,1.5143,1.5127,1.5121,1.5172,1.5172,1.5171,1.514,0,1.4924,1.4938,1.4969,1.4972,1.4982,1.5018,1.5023,1.5044,1.5064,1.5074,1.5096,1.5107,1.5131,1.5138,1.5138,1.516,1.5148,1.5163,1.5174,1.5174,1.5164,1.5117,1.51,1.5069,1.5136,1.5136,1.5135,0,1.4892,1.4911,1.4915,1.4948,1.4954,1.4957,1.4977,1.4988,1.5012,1.5026,1.504,1.5065,1.5071,1.5093,1.51,1.511,1.5116,1.5128,1.5127,1.5127,1.5151,1.5113,1.506,1.5054,1.513,1.5131,1.5131,0,1.4842,1.4869,1.4874,1.4885,1.4925,1.4926,1.4943,1.4968,1.4978,1.4995,1.5001,1.5019,1.5028,1.504,1.5068,1.5082,1.5071,1.5096,1.5081,1.5081,1.5076,1.5075,1.502,1.5084,1.5084,1.5084,1.5084,0,1.4804,1.4804,1.4852,1.4855,1.4856,1.4892,1.4891,1.4911,1.4933,1.4939,1.4972,1.4977,1.5015,1.5023,1.5046,1.5047,1.5051,1.5062,1.5067,1.5057,1.5056,1.506,1.5062,1.5083,1.5083,1.5083,1.5083,0,1.4747,1.478,1.4788,1.4826,1.4835,1.4834,1.4865,1.4868,1.4891,1.4898,1.4902,1.4937,1.4949,1.4979,1.4999,1.5013,1.5008,1.502,1.5,1.5003,1.4986,1.4986,1.493,1.4923,1.4993,1.4992,1.4991,0,1.472,1.4721,1.4759,1.4767,1.4782,1.4793,1.4803,1.4839,1.4848,1.4875,1.4875,1.489,1.4903,1.492,1.4946,1.4961,1.4971,1.4951,1.4974,1.4963,1.4968,1.4967,1.4966,1.4945,1.4944,1.4943,1.4943,0,1.4667,1.4683,1.4698,1.4717,1.4729,1.4746,1.4764,1.4768,1.4808,1.4816,1.4829,1.484,1.486,1.4873,1.4892,1.4908,1.493,1.4936,1.4933,1.4921,1.4909,1.4913,1.4983,1.4936,1.4937,1.4937,1.4938,1.4938,1.4623,1.4625,1.4652,1.4666,1.4684,1.4701,1.4706,1.473,1.4742,1.4762,1.4782,1.4792,1.4815,1.4843,1.4857,1.4865,1.4877,1.4873,1.4872,1.4869,1.4864,1.491,1.4869,1.4869,1.4869,1.4869,1.4869,0,1.4569,1.4589,1.4602,1.4627,1.4638,1.4662,1.4683,1.469,1.47,1.472,1.4733,1.4747,1.4761,1.4788,1.4804,1.4804,1.4815,1.4807,1.4806,1.4808,1.4853,1.4853,1.4798,1.4798,1.4798,1.4798,1.4798,1.4798,1.4542,1.4547,1.4566,1.4579,1.4598,1.461,1.462,1.4635,1.4651,1.4666,1.4678,1.4696,1.4719,1.4736,1.4749,1.4757,1.4759,1.4747,1.4758,1.4799,1.4805,1.4812,1.4812,1.4748,1.4748,1.4712,1.4711,1.4711]}]]